ヒル彗星

211P/Hill (2022)

English version
Home page
Updated on June 13, 2021

---------------------------------------------------------------------

・ プロフィール

・ 軌道要素

Epoch 2022 Sept. 18.0 TT = JDT 2459840.5
T 2022 Oct. 4.60801 TT                                  MPCW
q   2.3276204            (2000.0)            P               Q
n   0.14754720     Peri.    4.28550     -0.51767901     -0.80544009
a   3.5468983      Node   117.13213     +0.77502147     -0.58433493
e   0.3437589      Incl.   18.92048     +0.36242264     +0.09909064
P   6.68
From 294 observations 2003 Mar. 24-2015 Nov. 21, mean residual 0".8.
     Nongravitational parameters A1 = -4.22, A2 = -0.1593.

・ 光度変化

        m1 = 8.8 + 5 logΔ + 20.0 log r

---------------------------------------------------------------------

軌道要素はM.P.E.C. 2015-W63に掲載されたものです。
光度グラフはComet for Windowsで作成したものです。

---------------------------------------------------------------------

Copyright(C) Seiichi Yoshida (comet@aerith.net). All rights reserved.